Regional Weather Roundup
Issued by NWS Nashville, TN

Home | Current Version | Previous Version | Text Only | Print | Product List | Glossary On
Versions: 1 2 3 4 5 6 7 8 9 10 11 12 13 14 15 16 17 18 19 20 21 22 23 24 25 26 27 28 29 30 31 32 33 34 35 36 37 38 39 40 41 42 43 44 45 46 47 48 49 50
000
ASUS44 KOHX 260810
RWROHX
MIDDLE TENNESSEE HOURLY WEATHER ROUNDUP
NATIONAL WEATHER SERVICE NASHVILLE TN
300 AM CDT FRI AUG 26 2016

NOTE: "FAIR" INDICATES FEW OR NO CLOUDS BELOW 12,000 FEET WITH
NO SIGNIFICANT WEATHER AND/OR OBSTRUCTIONS TO VISIBILITY.

* THESE REPORTS ARE NOT UNDER NWS QUALITY CONTROL AND MAY NOT
  REPORT WEATHER SUCH AS PRECIPITATION AND FOG.


TNZ005>011-023>034-057-059-062>066-078-080-260900
...NORTHERN MIDDLE TENNESSEE...

CITY           SKY/WX    TMP DP  RH WIND       PRES   REMARKS
CLARKSVILLE    FOG       74  73  97 CALM      30.10R VSB 1/2
CROSSVILLE       N/A     69  68  96 CALM      30.19S FOG
NASHVILLE        N/A     76  74  93 CALM      30.10F
WEST NASHVILLE CLEAR     75  75 100 SE3       30.09F
SPARTA         CLEAR     72  70  94 CALM      30.13S
$$
TNZ056-058-060-061-075>077-079-093>097-260900
...SOUTHERN MIDDLE TENNESSEE...

CITY           SKY/WX    TMP DP  RH WIND       PRES   REMARKS
COLUMBIA       CLEAR    N/A N/A N/A CALM      30.09F
FAYETTEVILLE   CLOUDY    75  73  94 CALM      30.12S
MCMINNVILLE    CLEAR     73  73 100 CALM      30.13S
SHELBYVILLE    CLEAR     73  73 100 CALM      30.12F
TULLAHOMA      CLEAR     72  70  94 CALM      30.14S
WINCHESTER     CLEAR     72  72 100 CALM      30.13S
$$


...KEY TO REMARKS...
VSB - VISIBILITY IN MILES
WCI - WIND CHILL INDEX
HX  - HEAT INDEX




USA.gov is the U.S. government's official web portal to all federal, state and local government web resources and services.